Weather History for KPTW - January, 2013

Change the Weather History Date:

Sunday, January 20, 2013

  Actual Average (KRDG) Record (KRDG)
Temperature  
Mean Temperature 42 °F 29 °F  
Max Temperature 54 °F 38 °F 68 °F (1951)
Min Temperature 28 °F 21 °F -11 °F (1994)
Degree Days  
Heating Degree Days 23 36  
Month to date heating degree days 705  
Since 1 July heating degree days 2736  
Cooling Degree Days 0 0  
Month to date cooling degree days 0  
Year to date cooling degree days 0  
Moisture  
Dew Point 20 °F    
Average Humidity 44    
Maximum Humidity 63    
Minimum Humidity 26    
Precipitation  
Precipitation 0.00 in 0.09 in 1.06 in (1947)
Month to date precipitation 2.10  
Year to date precipitation 2.10  
Sea Level Pressure  
Sea Level Pressure 29.89 in    
Wind  
Wind Speed 8 mph (West)    
Max Wind Speed 20 mph    
Max Gust Speed 33 mph    
Visibility 10 miles    
Events      
T = Trace of Precipitation, MM = Missing Value Source: NWS Daily Summary

Daily Weather History Graph

Daily Weather History Graph

Search for Another Location

Airport or City:

Trip Planner

Search our weather history database for the weather conditions in past years. The results will help you decide how hot, cold, wet, or windy it might be!

Date:

Astronomy

Jan. 20, 2013 Rise Set
Actual Time 7:20 AM EST 5:06 PM EST
Civil Twilight 6:50 AM EST 5:36 PM EST
Nautical Twilight 6:17 AM EST 6:09 PM EST
Astronomical Twilight 5:45 AM EST 6:41 PM EST
Moon 12:06 PM EST (1/20) 1:50 AM EST (1/20)
Length of Visible Light 10h 45m
Length of Day
9h 46m
Waxing Gibbous, 66% of the Moon is Illuminated
Jan 20
Waxing Gibbous
Jan 26
Full
Feb 3
Last Quarter
Feb 10
New
Feb 17
First Quarter

Hourly Weather History & Observations

Time (EST) Temp. Windchill Dew Point Humidity Pressure Visibility Wind Dir Wind Speed Gust Speed Precip Events Conditions
1:54 AM 39.9 °F - 28.0 °F 63% 29.88 in 10.0 mi Calm Calm - N/A   Clear
3:54 AM 39.9 °F 34.5 °F 27.0 °F 60% 29.83 in 10.0 mi South 8.1 mph - N/A   Clear
4:54 AM 39.9 °F 34.5 °F 27.0 °F 60% 29.80 in 10.0 mi South 8.1 mph - N/A   Clear
5:54 AM 39.9 °F 35.1 °F 26.1 °F 58% 29.79 in 10.0 mi SSW 6.9 mph - N/A   Clear
7:54 AM 41.0 °F 35.8 °F 26.1 °F 55% 29.78 in 10.0 mi South 8.1 mph - N/A   Clear
8:54 AM 44.1 °F 40.8 °F 27.0 °F 51% 29.80 in 10.0 mi SW 5.8 mph - N/A   Clear
9:54 AM 48.9 °F - 27.0 °F 43% 29.81 in 10.0 mi SW 12.7 mph 21.9 mph N/A   Clear
10:54 AM 51.1 °F - 28.9 °F 43% 29.79 in 10.0 mi WSW 10.4 mph - N/A   Clear
11:54 AM 53.1 °F - 28.0 °F 38% 29.77 in - North - - N/A   Unknown
12:54 PM 54.0 °F - 27.0 °F 35% 29.76 in 10.0 mi West 10.4 mph 21.9 mph N/A   Mostly Cloudy
1:54 PM 53.1 °F - 21.9 °F 30% 29.78 in 10.0 mi WNW 16.1 mph 28.8 mph N/A   Clear
2:54 PM 51.1 °F - 17.1 °F 26% 29.83 in 10.0 mi WNW 18.4 mph 31.1 mph N/A   Clear
3:54 PM 48.0 °F - 15.1 °F 27% 29.87 in 10.0 mi WNW 12.7 mph 25.3 mph N/A   Clear
4:54 PM 44.1 °F 35.9 °F 12.0 °F 27% 29.91 in 10.0 mi WNW 19.6 mph 33.4 mph N/A   Clear
5:54 PM 39.9 °F 32.5 °F 15.1 °F 36% 29.96 in 10.0 mi WNW 12.7 mph 20.7 mph N/A   Clear
6:54 PM 36.0 °F 29.6 °F 15.1 °F 43% 30.00 in 10.0 mi WNW 8.1 mph - N/A   Clear
7:54 PM 34.0 °F 27.2 °F 14.0 °F 44% 30.03 in 10.0 mi WNW 8.1 mph - N/A   Clear
8:54 PM 32.0 °F 24.2 °F 12.9 °F 45% 30.05 in 10.0 mi WNW 9.2 mph - N/A   Clear
9:54 PM 30.9 °F 22.8 °F 12.0 °F 46% 30.06 in 10.0 mi NW 9.2 mph 19.6 mph N/A   Clear
10:54 PM 30.0 °F 21.1 °F 10.0 °F 43% 30.07 in 10.0 mi NW 10.4 mph 20.7 mph N/A   Unknown
11:54 PM 28.0 °F 20.0 °F 10.0 °F 47% 30.07 in 10.0 mi NW 8.1 mph 17.3 mph N/A   Unknown